• MPC Preparation (Info)

  • MPEC 2022-V130 : 2022 UY21

    The following Minor Planet Electronic Circular may be linked-to from your own Web pages, but must not otherwise be redistributed electronically.

    A form allowing access to any MPEC is at the bottom of this page.


    Read MPEC 2022-V129 Read MPEC 2022-V131


    M.P.E.C. 2022-V130                            Issued 2022 November 12, 15:19 UT
    
         The Minor Planet Electronic Circulars contain information on unusual
             minor planets, routine data on comets and natural satellites,
             and occasional editorial announcements.  They are published
        on behalf of Division F of the International Astronomical Union by the
              Minor Planet Center, Smithsonian Astrophysical Observatory,
                              Cambridge, MA 02138, U.S.A.
    			  
                 Prepared using the Tamkin Foundation Computer Network
    
                                  MPC@CFA.HARVARD.EDU
                URL https://www.minorplanetcenter.net/    ISSN 1523-6714
    
                                    2022 UY21                                
    
    
                               Revision to MPEC 2022-V18                            
    
    Additional Observations:
         K22U21Y  C2015 03 30.38408612 37 28.262-04 28 06.38         23.02GVEV130F51
         K22U21Y  C2015 03 30.40785112 37 26.372-04 28 01.49         22.06GVEV130F51
         K22U21Y  C2015 03 30.41973612 37 25.377-04 27 58.97         22.25GVEV130F51
         K22U21Y  C2015 04 13.38333412 18 55.619-03 40 05.51         22.40GVEV130F51
         K22U21Y  C2015 04 13.39418912 18 54.782-03 40 03.62         22.10GVEV130F51
         K22U21Y  C2015 04 13.40501112 18 53.900-03 40 01.33         22.96GVEV130F51
         K22U21Y  C2015 04 13.41585612 18 53.048-03 39 58.92         22.69GVEV130F51
         K22U21Y KC2019 12 10.63018510 28 03.889+42 42 40.71         22.36GVEV130F51
         K22U21Y  C2020 01 28.45960309 25 30.749+50 11 20.78         21.60GVEV130F51
         K22U21Y  C2020 01 28.47424809 25 28.873+50 11 22.95         22.47GVEV130F51
         K22U21Y  C2020 01 28.50298609 25 25.184+50 11 27.39         21.46GVEV130F51
         K22U21Y KC2022 02 28.57536214 48 43.351-25 26 40.40         23.53GVEV130F52
         K22U21Y  C2022 03 28.48314714 40 42.591-31 12 48.11         21.58wUEV130F52
         K22U21Y  C2022 03 28.50347514 40 41.420-31 13 04.11         21.71wUEV130F52
         K22U21Y  C2022 03 28.51364514 40 40.823-31 13 12.41         21.46wUEV130F52
    
    Observer details:
    F51 Pan-STARRS 1, Haleakala.  Observers J. Bulger, K. Chambers, T. Lowe, A.
        Schultz, I. Smith.  Measurers S. Chastel, J. Fairlamb, M. Huber, Y.
        Ramanjooloo, R. Wainscoat, R. Weryk.  1.8-m Ritchey-Chretien + CCD.
    F52 Pan-STARRS 2, Haleakala.  Observers J. Bulger, K. Chambers, T. Dukes, T.
        Lowe, A. Schultz, I. Smith.  Measurers S. Chastel, J. Fairlamb, M. Huber,
        Y. Ramanjooloo, R. Wainscoat, R. Weryk, K. Chambers, T. de Boer, H. Gao,
        C.-C. Lin, E. Magnier.  1.8-m Ritchey-Chretien + CCD.
    
    Orbital elements:
    2022 UY21                                                Earth MOID = 0.1577 AU
    Epoch 2022 Aug. 9.0 TT = JDT 2459800.5                  Veres                   
    M 348.10446              (2000.0)            P               Q                  
    n   0.29718107     Peri.  332.16966     +0.94176492     +0.32969470             
    a   2.2239343      Node     9.33590     -0.17849805     +0.65692323             
    e   0.6487332      Incl.   24.07801     -0.28498647     +0.67805108             
    P   3.32           H   18.84          G   0.15           U   1                  
    Residuals in seconds of arc
    150330 F51  0.1-  0.2-    221029 K88  0.3+  0.3+    221031 587  0.1+  0.1-
    150330 F51  0.2+  0.1-    221029 204  0.1+  0.0     221031 587  0.2+  0.2-
    150330 F51  0.4-  0.1+    221029 204  0.3-  0.3-    221031 587  0.1+  0.1-
    150413 F51  0.2-  0.1+    221029 204  0.3+  0.0     221101 595  0.3-  0.1+
    150413 F51  0.2+  0.2-    221029 104  0.1-  0.2+    221101 595  0.1+  0.1-
    150413 F51  0.0   0.1-    221029 104  0.0   0.1+    221101 595  0.2-  0.1-
    150413 F51  0.2+  0.2+    221029 104  0.0   0.3+    221101 K88  0.1-  0.1+
    191210 F51  0.2+  0.2-    221030 K51  0.2+  0.1-    221101 K88  0.0   0.2+
    200128 F51  0.1+  0.3+    221030 K51  0.2+  0.1-    221101 K88  0.0   0.0
    200128 F51  0.1+  0.1+    221030 K51  0.3+  0.0     221101 G40  0.4+  0.2+
    200128 F51  0.1-  0.0     221030 L01  0.2-  0.0     221101 G40  0.1-  0.1+
    220228 F52  0.1+  0.1+    221030 L01  0.1-  0.0     221101 G40  0.1-  0.1-
    220328 F52  0.1-  0.1+    221030 L01  0.1-  0.0     221102 C51  0.2+  0.1+
    220328 F52  0.0   0.1+    221030 L01  0.1-  0.1-    221102 C51  0.1+  0.0
    220328 F52  0.0   0.2-    221030 L01  0.1-  0.1-    221102 C51  0.3+  0.1+
    221029 K88  0.4-  0.1+    221030 Z99  0.0   0.5-    221102 C51  0.0   0.2+
    221029 K88  0.3-  0.5+    221030 Z99  0.3-  0.8-    221102 C51  0.2+  0.1+
    221029 K88  0.2-  0.3+    221030 Z99  0.1-  0.9-    221102 C51  0.3+  0.0
    221029 K88  0.2+  0.2+    221031 K88  0.1-  0.1-    221102 C51  0.2+  0.1+
    221029 K88  0.0   0.0     221031 K88  0.0   0.3+    221103 K88  0.0   0.1-
    221029 K88  0.4+  0.1+    221031 K88  0.0   0.1+    221103 K88  0.1-  0.1+
    221029 K88  0.1+  0.2+    221031 K88  0.2-  0.1-    221103 K88  0.0   0.0
    221029 K88  0.2+  0.2-    221031 K88  0.2-  0.2-    221103 K88  0.3-  0.1-
    221029 K88  0.0   0.3+    221031 K83  0.1+  0.0     221109 J95  0.2-  0.1+
    221029 K88  0.3+  0.1+    221031 K83  0.3-  0.3+    221109 J95  0.1+  0.1+
    221029 K88  0.2-  0.1+    221031 K83  0.3-  0.1-    221109 J95  0.1-  0.1-
    221029 K88  0.4+  0.3+    221031 204  0.1+  0.1+    221109 J95  0.3-  0.3-
    221029 K88  0.2-  0.1+    221031 204  0.1+  0.1-
    
    Ephemeris:
    2022 UY21                a,e,i = 2.22, 0.65, 24                  q = 0.7812
    Date    TT    R. A. (2000) Decl.     Delta      r    Elong.  Phase     V
    2022 10 13    12 49 22.0 +30 03 32   0.1687  0.8712    38.0   135.2    20.9
    ...
    2022 10 28    12 50 40.4 +67 03 48   0.2581  0.9879    81.2    83.8    18.8
    ...
    2022 11 05    12 53 15.8 +76 25 50   0.3218  1.0600    93.3    69.1    18.9
    ...
    2022 11 11    12 52 58.7 +81 35 55   0.3704  1.1166   100.1    60.8    19.1
    2022 11 12    12 52 16.7 +82 22 02   0.3785  1.1261   101.1    59.6    19.1
    2022 11 13    12 51 12.9 +83 06 55   0.3866  1.1357   102.1    58.4    19.2
    ...
    2022 11 19    12 21 46.2 +87 14 00   0.4356  1.1939   107.5    52.2    19.3
    ...
    2022 11 27    02 53 18.0 +87 32 10   0.5022  1.2724   113.3    45.4    19.6
    ...
    2022 12 12    02 26 17.7 +79 17 25   0.6361  1.4194   120.7    36.6    20.1
    
    A. U. Tomatic                (C) Copyright 2022 MPC           M.P.E.C. 2022-V130
    


    Read MPEC 2022-V129 Read MPEC 2022-V131


    MPEC number:

    Enter an MPEC number in one of the following forms:

    • 1997-B01 (the full form)
    • J97B01 (the packed version of the full form)
    • B01 (the abbreviated form)